| time (UTC) | temp C | wind direction | speed KPH | gust KPH | rain 1hr cm | rain 24hr cm | rain mn cm | humidity % | barometer mb |
| 20260508171505 | 5 | 352 | 4.8 | 9.7 | 0.00 | 2.18 | 0.03 | 96 | 1003.1 |
| 20260508170001 | 3 | 321 | 6.4 | 9.7 | 0.00 | 2.18 | 0.03 | 95 | 1003.2 |
| 20260508164601 | 3 | 329 | 6.4 | 9.7 | 0.00 | 2.18 | 0.03 | 95 | 1003.1 |
| 20260508163105 | 4 | 298 | 9.7 | 12.9 | 0.00 | 2.18 | 0.03 | 95 | 1002.9 |
| 20260508161607 | 4 | 294 | 9.7 | 12.9 | 0.00 | 2.18 | 0.03 | 94 | 1002.7 |
| 20260508160058 | 4 | 311 | 11.3 | 14.5 | 0.00 | 2.18 | 0.03 | 95 | 1002.6 |
| 20260508154559 | 5 | 334 | 8.0 | 14.5 | 0.00 | 2.18 | 0.03 | 95 | 1002.8 |
| 20260508153056 | 4 | 343 | 8.0 | 14.5 | 0.00 | 2.18 | 0.03 | 95 | 1002.7 |
| 20260508151605 | 4 | 327 | 6.4 | 9.7 | 0.00 | 2.18 | 0.03 | 95 | 1002.7 |
| 20260508150054 | 4 | 321 | 9.7 | 14.5 | 0.00 | 2.18 | 0.03 | 95 | 1002.9 |
| 20260508144553 | 4 | 312 | 9.7 | 14.5 | 0.00 | 2.18 | 0.03 | 95 | 1002.9 |
| 20260508143054 | 5 | 330 | 4.8 | 8.0 | 0.00 | 2.18 | 0.03 | 95 | 1002.9 |
| 20260508141553 | 4 | 329 | 4.8 | 9.7 | 0.00 | 2.18 | 0.03 | 95 | 1003.0 |
| 20260508140052 | 4 | 310 | 6.4 | 9.7 | 0.00 | 2.18 | 0.03 | 95 | 1003.5 |
| 20260508134556 | 4 | 296 | 3.2 | 8.0 | 0.00 | 2.18 | 0.03 | 95 | 1003.4 |
| 20260508133102 | 4 | 298 | 4.8 | 8.0 | 0.00 | 2.18 | 0.03 | 95 | 1003.3 |
| 20260508131549 | 5 | 319 | 3.2 | 8.0 | 0.00 | 2.18 | 0.03 | 95 | 1003.0 |
| 20260508130048 | 5 | 289 | 4.8 | 9.7 | 0.00 | 2.18 | 0.03 | 95 | 1002.8 |
| 20260508124548 | 5 | 304 | 8.0 | 9.7 | 0.00 | 2.18 | 0.03 | 95 | 1002.6 |
| 20260508123054 | 5 | 300 | 4.8 | 8.0 | 0.00 | 2.18 | 0.03 | 95 | 1002.6 |
| 20260508121552 | 5 | 338 | 1.6 | 6.4 | 0.00 | 2.18 | 0.03 | 95 | 1002.8 |
| 20260508120045 | 5 | 332 | 3.2 | 6.4 | 0.00 | 2.18 | 0.03 | 95 | 1002.9 |
| 20260508114543 | 5 | 332 | 0.0 | 4.8 | 0.00 | 2.18 | 0.03 | 95 | 1002.9 |
| 20260508113049 | 4 | 332 | 3.2 | 4.8 | 0.00 | 2.18 | 0.03 | 95 | 1002.8 |
| 20260508111547 | 4 | 332 | 3.2 | 6.4 | 0.00 | 2.18 | 0.03 | 95 | 1002.9 |
| 20260508110047 | 5 | 343 | 1.6 | 4.8 | 0.00 | 2.18 | 0.03 | 95 | 1003.1 |
| 20260508104542 | 4 | 343 | 1.6 | 3.2 | 0.00 | 2.18 | 0.03 | 95 | 1003.1 |
| 20260508103042 | 5 | 343 | 1.6 | 3.2 | 0.00 | 2.18 | 0.03 | 95 | 1003.2 |
| 20260508101540 | 5 | 343 | 0.0 | 3.2 | 0.00 | 2.18 | 0.03 | 95 | 1003.2 |
| 20260508100039 | 4 | 343 | 0.0 | 4.8 | 0.00 | 2.18 | 0.03 | 95 | 1003.0 |
| 20260508094544 | 4 | 343 | 1.6 | 4.8 | 0.00 | 2.18 | 0.03 | 95 | 1002.9 |
| 20260508093042 | 4 | 269 | 1.6 | 4.8 | 0.00 | 2.18 | 0.03 | 95 | 1002.8 |
| 20260508091536 | 4 | 269 | 3.2 | 6.4 | 0.00 | 2.18 | 0.03 | 95 | 1002.8 |
| 20260508090036 | 4 | 269 | 0.0 | 3.2 | 0.00 | 2.18 | 0.03 | 95 | 1002.5 |
| 20260508084532 | 5 | 269 | 3.2 | 6.4 | 0.00 | 2.18 | 0.03 | 94 | 1002.2 |
| 20260508083030 | 5 | 256 | 4.8 | 9.7 | 0.03 | 2.18 | 0.03 | 95 | 1002.2 |
| 20260508081533 | 5 | 331 | 0.0 | 0.0 | 0.03 | 2.18 | 0.03 | 95 | 1001.8 |
| 20260508080028 | 5 | 331 | 0.0 | 1.6 | 0.03 | 2.18 | 0.03 | 95 | 1002.0 |
| 20260508074527 | 5 | 331 | 1.6 | 4.8 | 0.03 | 2.18 | 0.03 | 94 | 1002.0 |
| 20260508073026 | 5 | 331 | 1.6 | 4.8 | 0.00 | 2.16 | 0.00 | 95 | 1002.3 |
| 20260508071529 | 5 | 331 | 4.8 | 6.4 | 0.00 | 2.16 | 0.00 | 94 | 1002.3 |
| 20260508070025 | 6 | 331 | 0.0 | 1.6 | 0.00 | 2.16 | 0.00 | 94 | 1002.4 |
| 20260508064524 | 6 | 331 | 3.2 | 6.4 | 0.00 | 2.16 | 0.00 | 94 | 1002.4 |
| 20260508063022 | 6 | 17 | 3.2 | 6.4 | 0.00 | 2.16 | 0.00 | 95 | 1002.2 |
| 20260508061525 | 6 | 20 | 3.2 | 6.4 | 0.00 | 2.16 | 0.00 | 95 | 1002.3 |
| 20260508060019 | 6 | 19 | 4.8 | 9.7 | 0.00 | 2.16 | 0.00 | 94 | 1002.5 |
| 20260508054521 | 6 | 357 | 8.0 | 9.7 | 0.00 | 2.16 | 0.00 | 94 | 1002.6 |
| 20260508053020 | 6 | 359 | 4.8 | 8.0 | 0.00 | 2.16 | 0.00 | 94 | 1002.9 |
| 20260508051527 | 6 | 358 | 8.0 | 12.9 | 0.00 | 2.16 | 0.00 | 94 | 1003.0 |
| 20260508050015 | 5 | 360 | 6.4 | 12.9 | 0.00 | 2.16 | 0.00 | 94 | 1002.8 |
| 20260508044513 | 6 | 11 | 1.6 | 6.4 | 0.00 | 2.16 | 0.00 | 94 | 1002.8 |
| 20260508043017 | 6 | 13 | 1.6 | 6.4 | 0.00 | 2.16 | 0.00 | 94 | 1002.5 |
| 20260508041511 | 6 | 314 | 6.4 | 12.9 | 0.00 | 2.16 | 0.00 | 93 | 1003.0 |
| 20260508040013 | 5 | 88 | 0.0 | 9.7 | 0.00 | 2.16 | 0.00 | 94 | 1002.9 |
| 20260508034509 | 5 | 274 | 0.0 | 3.2 | 0.00 | 2.16 | 0.00 | 93 | 1002.9 |
| 20260508033007 | 6 | 275 | 6.4 | 11.3 | 0.00 | 2.16 | 0.00 | 92 | 1003.0 |
| 20260508031601 | 7 | 88 | 1.6 | 6.4 | 0.00 | 2.16 | 0.00 | 92 | 1002.8 |
| 20260508024558 | 8 | 88 | 0.0 | 4.8 | 0.00 | 2.16 | 2.16 | 94 | 1002.7 |
| 20260508023056 | 8 | 88 | 4.8 | 9.7 | 0.03 | 2.16 | 2.16 | 94 | 1002.7 |
| 20260508021556 | 7 | 190 | 0.0 | 0.0 | 0.05 | 2.16 | 2.16 | 92 | 1003.1 |
| 20260508021506 | 7 | 190 | 0.0 | 0.0 | 0.05 | 2.16 | 2.16 | 93 | 1003.1 |
| 20260508020051 | 7 | 190 | 0.0 | 0.0 | 0.08 | 2.16 | 2.16 | 93 | 1003.1 |
| 20260508014551 | 7 | 200 | 0.0 | 0.0 | 0.10 | 2.16 | 2.16 | 93 | 1003.4 |
| 20260508013051 | 7 | 200 | 0.0 | 0.0 | 0.13 | 2.13 | 2.13 | 92 | 1003.4 |
| 20260508011550 | 7 | 200 | 0.0 | 4.8 | 0.15 | 2.11 | 2.11 | 92 | 1003.3 |
| 20260508010052 | 8 | 199 | 1.6 | 3.2 | 0.20 | 2.08 | 2.08 | 92 | 1003.3 |
| 20260508004552 | 8 | 199 | 1.6 | 4.8 | 0.25 | 2.06 | 2.06 | 92 | 1003.3 |
| 20260508003048 | 8 | 199 | 3.2 | 6.4 | 0.30 | 2.03 | 2.03 | 92 | 1003.4 |
| 20260508001547 | 8 | 199 | 4.8 | 8.0 | 0.28 | 1.96 | 1.96 | 91 | 1003.4 |
| 20260508000046 | 8 | 207 | 4.8 | 11.3 | 0.20 | 1.88 | 1.88 | 91 | 1003.5 |
| 20260507234556 | 7 | 208 | 11.3 | 19.3 | 0.13 | 1.80 | 1.80 | 91 | 1003.2 |
| 20260507233044 | 8 | 257 | 9.7 | 19.3 | 0.05 | 1.73 | 1.73 | 88 | 1002.8 |
| 20260507231548 | 8 | 229 | 12.9 | 20.9 | 0.00 | 1.68 | 1.68 | 87 | 1002.6 |
| 20260507230036 | 12 | 230 | 20.9 | 29.0 | 0.00 | 1.68 | 1.68 | 80 | 1002.1 |
| 20260507224537 | 13 | 169 | 6.4 | 19.3 | 0.00 | 1.68 | 1.68 | 84 | 1001.5 |
| 20260507223035 | 13 | 141 | 12.9 | 25.7 | 0.00 | 1.68 | 1.68 | 84 | 1001.4 |
| 20260507221535 | 13 | 138 | 12.9 | 24.1 | 0.00 | 1.68 | 1.68 | 84 | 1001.5 |
| 20260507220033 | 13 | 150 | 24.1 | 37.0 | 0.00 | 1.68 | 1.68 | 84 | 1001.4 |
| 20260507214533 | 13 | 147 | 19.3 | 33.8 | 0.00 | 1.68 | 1.68 | 84 | 1001.4 |
| 20260507213032 | 13 | 148 | 19.3 | 30.6 | 0.00 | 1.68 | 1.68 | 84 | 1001.0 |
| 20260507211533 | 13 | 152 | 20.9 | 35.4 | 0.00 | 1.68 | 1.68 | 85 | 1001.0 |
| 20260507210033 | 13 | 161 | 24.1 | 38.6 | 0.00 | 1.68 | 1.68 | 85 | 1001.3 |
| 20260507204531 | 13 | 129 | 29.0 | 37.0 | 0.05 | 1.68 | 1.68 | 83 | 1001.3 |
| 20260507203031 | 14 | 158 | 25.7 | 33.8 | 0.23 | 1.68 | 1.68 | 83 | 1001.1 |
| 20260507201537 | 13 | 106 | 19.3 | 29.0 | 0.41 | 1.68 | 1.68 | 85 | 1000.6 |
| 20260507200043 | 13 | 131 | 19.3 | 38.6 | 0.48 | 1.68 | 1.68 | 85 | 1000.2 |
| 20260507194527 | 12 | 118 | 29.0 | 41.8 | 0.51 | 1.65 | 1.65 | 88 | 1001.2 |
| 20260507193023 | 12 | 134 | 30.6 | 40.2 | 0.43 | 1.42 | 1.42 | 89 | 1002.1 |
| 20260507191520 | 12 | 176 | 14.5 | 25.7 | 0.41 | 1.27 | 1.27 | 88 | 1003.5 |
| 20260507190018 | 12 | 156 | 16.1 | 30.6 | 0.51 | 1.19 | 1.19 | 88 | 1003.2 |
| 20260507184517 | 12 | 125 | 19.3 | 35.4 | 0.76 | 1.12 | 1.12 | 88 | 1003.6 |
| 20260507183030 | 12 | 154 | 24.1 | 41.8 | 0.97 | 0.99 | 0.99 | 88 | 1003.9 |
| 20260507181514 | 12 | 171 | 19.3 | 27.4 | 0.86 | 0.86 | 0.86 | 89 | 1004.3 |
| 20260507180012 | 12 | 185 | 12.9 | 29.0 | 0.69 | 0.69 | 0.69 | 89 | 1004.4 |
| 20260507174512 | 12 | 168 | 19.3 | 33.8 | 0.33 | 0.33 | 0.33 | 88 | 1004.8 |
| 20260507173007 | 13 | 201 | 19.3 | 41.8 | 0.03 | 0.03 | 0.03 | 85 | 1004.3 |